Weather History for Watertown, WI

Change the Weather History Date:

Sunday, June 30, 2013

  Actual Average Record
Temperature  
Mean Temperature 66 °F -  
Max Temperature 77 °F 82 °F 101 °F (1931)
Min Temperature 55 °F 60 °F 41 °F (1943)
Cooling Degree Days 1    
Growing Degree Days 16 (Base 50)    
Moisture  
Dew Point 53 °F    
Average Humidity 64    
Maximum Humidity 86    
Minimum Humidity 40    
Precipitation  
Precipitation 0.00 in - - ()
Sea Level Pressure  
Sea Level Pressure 29.95 in    
Wind  
Wind Speed 7 mph (NNE)    
Max Wind Speed 18 mph    
Max Gust Speed 23 mph    
Visibility 10 miles    
Events      
Averages and records for this station are not official NWS values.
T = Trace of Precipitation, MM = Missing Value Source: NWS Daily Summary

Daily Weather History Graph

Daily Weather History Graph

Search for Another Location

Airport:

Trip Planner

Search our weather history database for the weather conditions in past years. The results will help you decide how hot, cold, wet, or windy it might be!

Date:

Astronomy

Jun. 30, 2013 Rise Set
Actual Time 5:18 AM CDT 8:38 PM CDT
Civil Twilight 4:43 AM CDT 9:13 PM CDT
Nautical Twilight 3:57 AM CDT 9:59 PM CDT
Astronomical Twilight 3:00 AM CDT 10:56 PM CDT
Moon 12:25 AM CDT (6/30) 1:46 PM CDT (6/30)
Length of Visible Light 16h 30m
Length of Day
15h 19m
Last Quarter, 45% of the Moon is Illuminated
Jun 30
Last Quarter
Jul 8
New
Jul 15
First Quarter
Jul 22
Full
Jul 29
Last Quarter

Hourly Weather History & Observations

Time (CDT) Temp. Dew Point Humidity Pressure Visibility Wind Dir Wind Speed Gust Speed Precip Events Conditions
12:15 AM 63.9 °F 55.4 °F 74% 29.84 in 10.0 mi NNE 8.1 mph - N/A   Overcast
12:35 AM 63.5 °F 54.9 °F 73% 29.85 in 10.0 mi NNE 6.9 mph - N/A   Overcast
12:55 AM 63.5 °F 54.7 °F 73% 29.85 in 10.0 mi NNE 8.1 mph - N/A   Overcast
1:15 AM 63.5 °F 54.0 °F 71% 29.85 in 10.0 mi NNE 10.4 mph - N/A   Overcast
1:35 AM 62.6 °F 54.7 °F 75% 29.85 in 10.0 mi NE 5.8 mph - N/A   Overcast
1:55 AM 63.0 °F 54.1 °F 73% 29.85 in 10.0 mi North 6.9 mph - N/A   Overcast
2:15 AM 62.8 °F 54.1 °F 73% 29.85 in 10.0 mi North 8.1 mph - N/A   Overcast
2:35 AM 62.8 °F 53.6 °F 72% 29.85 in 10.0 mi NNE 9.2 mph - N/A   Overcast
2:55 AM 62.4 °F 52.7 °F 70% 29.86 in 10.0 mi NNE 6.9 mph - N/A   Overcast
3:15 AM 61.3 °F 52.7 °F 73% 29.86 in 10.0 mi NNE 6.9 mph - N/A   Overcast
3:35 AM 60.8 °F 53.4 °F 77% 29.86 in 10.0 mi North 4.6 mph - N/A   Overcast
3:55 AM 60.4 °F 52.7 °F 76% 29.87 in 10.0 mi North 4.6 mph - N/A   Overcast
4:15 AM 59.9 °F 52.2 °F 76% 29.87 in 10.0 mi North 4.6 mph - N/A   Scattered Clouds
4:35 AM 59.0 °F 51.1 °F 75% 29.87 in 10.0 mi NNE 4.6 mph - N/A   Clear
4:55 AM 58.6 °F 50.7 °F 75% 29.88 in 10.0 mi NNE 4.6 mph - N/A   Clear
5:15 AM 58.1 °F 50.7 °F 76% 29.89 in 10.0 mi North 4.6 mph - N/A   Clear
5:35 AM 58.1 °F 50.2 °F 75% 29.89 in 10.0 mi North 4.6 mph - N/A   Scattered Clouds
5:55 AM 58.1 °F 50.2 °F 75% 29.90 in 10.0 mi North 4.6 mph - N/A   Clear
6:15 AM 57.4 °F 52.7 °F 84% 29.91 in 10.0 mi North 5.8 mph - N/A   Mostly Cloudy
6:35 AM 58.3 °F 52.9 °F 82% 29.91 in 10.0 mi North 6.9 mph - N/A   Overcast
6:55 AM 58.6 °F 52.9 °F 81% 29.92 in 10.0 mi North 6.9 mph - N/A   Overcast
7:15 AM 59.2 °F 52.5 °F 79% 29.92 in 10.0 mi North 8.1 mph - N/A   Scattered Clouds
7:35 AM 59.9 °F 52.2 °F 76% 29.93 in 10.0 mi North 6.9 mph - N/A   Scattered Clouds
7:55 AM 60.4 °F 52.3 °F 75% 29.93 in 10.0 mi North 6.9 mph - N/A   Clear
8:15 AM 62.6 °F 52.9 °F 70% 29.94 in 10.0 mi North 9.2 mph - N/A   Clear
8:35 AM 61.7 °F 52.7 °F 72% 29.94 in 10.0 mi North 5.8 mph - N/A   Clear
9:15 AM 66.4 °F 54.3 °F 65% 29.94 in 10.0 mi NNE 10.4 mph - N/A   Clear
9:35 AM 67.1 °F 54.1 °F 63% 29.94 in 10.0 mi NNE 8.1 mph - N/A   Clear
9:55 AM 67.8 °F 54.9 °F 63% 29.95 in 10.0 mi NNE 10.4 mph - N/A   Clear
10:15 AM 68.7 °F 55.4 °F 62% 29.95 in 10.0 mi NNE 8.1 mph - N/A   Clear
10:35 AM 70.0 °F 56.5 °F 62% 29.96 in 10.0 mi North 8.1 mph - N/A   Clear
10:55 AM 70.2 °F 56.1 °F 61% 29.96 in 10.0 mi North 8.1 mph - N/A   Clear
11:15 AM 71.2 °F 57.6 °F 62% 29.96 in 10.0 mi North 9.2 mph - N/A   Clear
11:55 AM 72.5 °F 58.6 °F 62% 29.96 in 10.0 mi North 9.2 mph - N/A   Clear
12:15 PM 73.0 °F 58.3 °F 60% 29.97 in 10.0 mi North 9.2 mph - N/A   Clear
12:35 PM 73.6 °F 57.9 °F 58% 29.96 in 10.0 mi North 10.4 mph - N/A   Clear
12:55 PM 74.5 °F 58.6 °F 58% 29.97 in 10.0 mi North 8.1 mph - N/A   Clear
1:15 PM 75.6 °F 59.2 °F 57% 29.97 in 10.0 mi North 8.1 mph - N/A   Clear
1:35 PM 75.4 °F 59.2 °F 57% 29.97 in 10.0 mi North 8.1 mph 17.3 mph N/A   Clear
1:55 PM 75.9 °F 58.8 °F 55% 29.97 in 10.0 mi NNE 12.7 mph 18.4 mph N/A   Clear
2:35 PM 76.1 °F 59.4 °F 56% 29.97 in 10.0 mi North 10.4 mph 19.6 mph N/A   Clear
2:55 PM 77.0 °F 59.2 °F 54% 29.97 in 10.0 mi North 10.4 mph 19.6 mph N/A   Clear
3:15 PM 76.1 °F 58.1 °F 54% 29.97 in 10.0 mi North 10.4 mph 19.6 mph N/A   Clear
3:35 PM 75.9 °F 57.9 °F 54% 29.97 in 10.0 mi North 11.5 mph 18.4 mph N/A   Clear
3:55 PM 76.1 °F 56.7 °F 51% 29.98 in 10.0 mi North 15.0 mph 20.7 mph N/A   Scattered Clouds
4:15 PM 75.6 °F 55.2 °F 49% 29.98 in 10.0 mi North 13.8 mph 21.9 mph N/A   Clear
4:35 PM 75.9 °F 53.4 °F 45% 29.98 in 10.0 mi North 18.4 mph 23.0 mph N/A   Clear
4:55 PM 75.6 °F 52.0 °F 44% 29.98 in 10.0 mi NNE 13.8 mph 19.6 mph N/A   Clear
5:15 PM 75.2 °F 51.3 °F 43% 29.99 in 10.0 mi NNE 12.7 mph 20.7 mph N/A   Clear
5:35 PM 75.0 °F 49.8 °F 41% 29.99 in 10.0 mi North 16.1 mph 21.9 mph N/A   Clear
5:55 PM 74.8 °F 49.3 °F 40% 29.99 in 10.0 mi North 16.1 mph 21.9 mph N/A   Clear
6:15 PM 74.3 °F 48.6 °F 40% 30.00 in 10.0 mi NNE 10.4 mph 21.9 mph N/A   Clear
6:35 PM 73.6 °F 50.5 °F 44% 30.01 in 10.0 mi North 8.1 mph 17.3 mph N/A   Clear
6:55 PM 72.7 °F 46.9 °F 40% 30.01 in 10.0 mi North 9.2 mph - N/A   Clear
7:15 PM 71.8 °F 47.7 °F 42% 30.01 in 10.0 mi NNE 8.1 mph - N/A   Clear
7:35 PM 70.2 °F 48.6 °F 46% 30.01 in 10.0 mi NE 5.8 mph - N/A   Clear
7:55 PM 68.0 °F 49.8 °F 52% 30.01 in 10.0 mi NE 3.5 mph - N/A   Clear
8:15 PM 66.9 °F 49.1 °F 53% 30.01 in 10.0 mi NE 3.5 mph - N/A   Clear
8:35 PM 66.6 °F 48.6 °F 52% 30.02 in 10.0 mi Calm Calm - N/A   Clear
8:55 PM 65.7 °F 49.6 °F 56% 30.02 in 10.0 mi NNE 3.5 mph - N/A   Clear
9:15 PM 64.9 °F 50.5 °F 60% 30.03 in 10.0 mi Calm Calm - N/A   Clear
9:35 PM 63.1 °F 48.6 °F 59% 30.04 in 10.0 mi NNE 3.5 mph - N/A   Clear
9:55 PM 62.6 °F 49.8 °F 63% 30.04 in 10.0 mi NNE 3.5 mph - N/A   Clear
10:15 PM 61.9 °F 52.3 °F 71% 30.04 in 10.0 mi Calm Calm - N/A   Clear
10:35 PM 58.3 °F 50.0 °F 74% 30.04 in 10.0 mi Calm Calm - N/A   Clear
10:55 PM 57.9 °F 51.3 °F 78% 30.04 in 10.0 mi Calm Calm - N/A   Clear
11:15 PM 57.4 °F 51.1 °F 79% 30.05 in 10.0 mi Calm Calm - N/A   Clear
11:35 PM 55.4 °F 51.3 °F 86% 30.05 in 10.0 mi Calm Calm - N/A   Clear
11:55 PM 56.3 °F 51.1 °F 83% 30.05 in 10.0 mi Calm Calm - N/A   Clear